When you browse on this site, cookies collect data to enhance your experience and personalize the content and advertising you see.
Visit our Privacy Policy to learn more. By continuing to use the site, you agree to this use of cookies and data.

Hourly Weather Kalinovka

Today, 13 July, Monday

Time Temperature Precipitation Wind Pressure Humidity
00:00 +10°C° 0.4 mm 6 mps 737 mmHg 94%
01:00 +10°C° 0.4 mm 6 mps 737 mmHg 93%
02:00 +10°C° 0.4 mm 6 mps 737 mmHg 93%
03:00 +10°C° 0 mm 6 mps 737 mmHg 92%
04:00 +10°C° 0 mm 6 mps 737 mmHg 91%
05:00 +10°C° 0 mm 6 mps 736 mmHg 90%
06:00 +11°C° 0 mm 7 mps 736 mmHg 87%
07:00 +12°C° 0 mm 7 mps 737 mmHg 84%
08:00 +12°C° 0 mm 7 mps 737 mmHg 80%
09:00 +15°C° 0.1 mm 7 mps 737 mmHg 75%
10:00 +16°C° 0.1 mm 7 mps 737 mmHg 70%
11:00 +17°C° 0.1 mm 7 mps 736 mmHg 65%
12:00 +17°C° 0.2 mm 7 mps 736 mmHg 65%
13:00 +18°C° 0.2 mm 7 mps 736 mmHg 64%
14:00 +18°C° 0.2 mm 7 mps 736 mmHg 63%
15:00 +18°C° 0.1 mm 7 mps 736 mmHg 64%
16:00 +18°C° 0.1 mm 7 mps 736 mmHg 64%
17:00 +17°C° 0.1 mm 6 mps 735 mmHg 64%
18:00 +16°C° 0 mm 6 mps 735 mmHg 68%
19:00 +15°C° 0 mm 5 mps 735 mmHg 73%
20:00 +14°C° 0 mm 4 mps 735 mmHg 77%
21:00 +13°C° 0 mm 4 mps 735 mmHg 79%
22:00 +12°C° 0 mm 4 mps 735 mmHg 81%
23:00 +11°C° 0 mm 4 mps 735 mmHg 84%

Tomorrow, 14 July, Tuesday

Time Temperature Precipitation Wind Pressure Humidity
00:00 +11°C° 0 mm 4 mps 735 mmHg 86%
01:00 +11°C° 0 mm 4 mps 735 mmHg 88%
02:00 +10°C° 0 mm 4 mps 735 mmHg 89%
03:00 +9°C° 0 mm 5 mps 735 mmHg 90%
04:00 +9°C° 0 mm 5 mps 735 mmHg 91%
05:00 +9°C° 0 mm 5 mps 735 mmHg 92%
06:00 +10°C° 0 mm 5 mps 735 mmHg 86%
07:00 +13°C° 0 mm 5 mps 735 mmHg 79%
08:00 +15°C° 0 mm 6 mps 735 mmHg 72%
09:00 +16°C° 0 mm 6 mps 735 mmHg 68%
10:00 +17°C° 0 mm 6 mps 735 mmHg 64%
11:00 +19°C° 0 mm 6 mps 735 mmHg 60%
12:00 +20°C° 0 mm 6 mps 735 mmHg 59%
13:00 +20°C° 0 mm 6 mps 735 mmHg 57%
14:00 +21°C° 0 mm 6 mps 735 mmHg 56%
15:00 +21°C° 0 mm 5 mps 735 mmHg 57%
16:00 +21°C° 0 mm 5 mps 735 mmHg 57%
17:00 +21°C° 0 mm 5 mps 734 mmHg 58%
18:00 +19°C° 0 mm 4 mps 735 mmHg 67%
19:00 +17°C° 0 mm 4 mps 735 mmHg 75%
20:00 +16°C° 0 mm 3 mps 735 mmHg 84%
21:00 +14°C° 0 mm 3 mps 735 mmHg 87%
22:00 +13°C° 0 mm 3 mps 735 mmHg 89%
23:00 +12°C° 0 mm 3 mps 735 mmHg 92%

Day after tomorrow, 15 July, Wednesday

Time Temperature Precipitation Wind Pressure Humidity
00:00 +12°C° 0 mm 3 mps 735 mmHg 93%
01:00 +12°C° 0 mm 3 mps 735 mmHg 94%
02:00 +11°C° 0 mm 3 mps 735 mmHg 94%
03:00 +11°C° 0 mm 3 mps 735 mmHg 95%
04:00 +11°C° 0 mm 3 mps 735 mmHg 95%
05:00 +11°C° 0 mm 3 mps 735 mmHg 95%
06:00 +12°C° 0 mm 3 mps 735 mmHg 89%
07:00 +14°C° 0 mm 3 mps 736 mmHg 82%
08:00 +17°C° 0 mm 4 mps 736 mmHg 76%
09:00 +18°C° 0 mm 4 mps 736 mmHg 71%
10:00 +19°C° 0 mm 4 mps 736 mmHg 66%
11:00 +21°C° 0 mm 3 mps 736 mmHg 61%
12:00 +21°C° 0 mm 3 mps 736 mmHg 59%
13:00 +22°C° 0 mm 3 mps 736 mmHg 58%
14:00 +22°C° 0 mm 3 mps 736 mmHg 57%
15:00 +22°C° 0 mm 3 mps 736 mmHg 58%
16:00 +22°C° 0 mm 3 mps 735 mmHg 59%
17:00 +22°C° 0 mm 3 mps 735 mmHg 61%
18:00 +20°C° 0 mm 3 mps 735 mmHg 67%
19:00 +18°C° 0 mm 2 mps 735 mmHg 73%
20:00 +18°C° 0 mm 1 mps 735 mmHg 78%
21:00 +16°C° 0 mm 1 mps 735 mmHg 80%
22:00 +15°C° 0 mm 1 mps 735 mmHg 82%
23:00 +15°C° 0 mm 1 mps 735 mmHg 84%

16 July, Thursday

Time Temperature Precipitation Wind Pressure Humidity
00:00 +14°C° 0 mm 1 mps 735 mmHg 84%
01:00 +14°C° 0 mm 1 mps 735 mmHg 85%
02:00 +14°C° 0 mm 1 mps 735 mmHg 86%
03:00 +14°C° 0 mm 1 mps 735 mmHg 86%
04:00 +14°C° 0 mm 1 mps 734 mmHg 86%
05:00 +13°C° 0 mm 0 mps 734 mmHg 86%
06:00 +16°C° 0 mm 1 mps 734 mmHg 80%
07:00 +19°C° 0 mm 1 mps 735 mmHg 74%
08:00 +21°C° 0 mm 1 mps 735 mmHg 69%
09:00 +22°C° 0 mm 1 mps 735 mmHg 64%
10:00 +23°C° 0 mm 1 mps 735 mmHg 59%
11:00 +25°C° 0 mm 1 mps 734 mmHg 55%
12:00 +25°C° 0.3 mm 1 mps 734 mmHg 55%
13:00 +26°C° 0.3 mm 2 mps 734 mmHg 54%
14:00 +26°C° 0.3 mm 2 mps 734 mmHg 54%
15:00 +26°C° 0.4 mm 2 mps 733 mmHg 57%
16:00 +25°C° 0.4 mm 2 mps 733 mmHg 60%
17:00 +25°C° 0.4 mm 3 mps 733 mmHg 62%
18:00 +24°C° 0.2 mm 2 mps 732 mmHg 67%
19:00 +21°C° 0.2 mm 2 mps 732 mmHg 72%
20:00 +20°C° 0.2 mm 2 mps 732 mmHg 77%
21:00 +19°C° 0.2 mm 2 mps 732 mmHg 80%
22:00 +18°C° 0.2 mm 2 mps 732 mmHg 84%
23:00 +17°C° 0.2 mm 2 mps 732 mmHg 87%

17 July, Friday

Time Temperature Precipitation Wind Pressure Humidity
00:00 +17°C° 0.1 mm 2 mps 732 mmHg 89%
01:00 +16°C° 0.1 mm 2 mps 732 mmHg 90%
02:00 +16°C° 0.1 mm 1 mps 732 mmHg 91%
03:00 +16°C° 0 mm 1 mps 732 mmHg 91%
04:00 +16°C° 0 mm 1 mps 732 mmHg 91%
05:00 +15°C° 0 mm 0 mps 732 mmHg 91%
06:00 +18°C° 0.1 mm 1 mps 732 mmHg 90%
07:00 +19°C° 0.1 mm 1 mps 732 mmHg 88%
08:00 +19°C° 0.1 mm 1 mps 732 mmHg 86%
09:00 +19°C° 0.3 mm 2 mps 732 mmHg 84%
10:00 +20°C° 0.3 mm 2 mps 732 mmHg 83%
11:00 +20°C° 0.3 mm 3 mps 733 mmHg 81%
12:00 +21°C° 0.7 mm 3 mps 732 mmHg 80%
13:00 +21°C° 0.7 mm 3 mps 732 mmHg 79%
14:00 +22°C° 0.7 mm 4 mps 732 mmHg 77%
15:00 +21°C° 0.5 mm 4 mps 732 mmHg 79%
16:00 +20°C° 0.5 mm 4 mps 732 mmHg 82%
17:00 +20°C° 0.5 mm 4 mps 732 mmHg 84%
18:00 +19°C° 0.1 mm 3 mps 732 mmHg 87%
19:00 +18°C° 0.1 mm 2 mps 732 mmHg 90%
20:00 +17°C° 0.1 mm 2 mps 732 mmHg 93%
21:00 +16°C° 0 mm 2 mps 732 mmHg 93%
22:00 +16°C° 0 mm 2 mps 733 mmHg 92%
23:00 +16°C° 0 mm 2 mps 733 mmHg 92%

18 July, Saturday

Time Temperature Precipitation Wind Pressure Humidity
00:00 +16°C° 0 mm 2 mps 733 mmHg 92%
01:00 +16°C° 0 mm 2 mps 733 mmHg 92%
02:00 +15°C° 0 mm 2 mps 733 mmHg 93%
03:00 +15°C° 0 mm 2 mps 733 mmHg 92%
04:00 +15°C° 0 mm 2 mps 732 mmHg 92%
05:00 +15°C° 0 mm 2 mps 732 mmHg 92%
06:00 +15°C° 0.6 mm 2 mps 732 mmHg 93%
07:00 +16°C° 0.6 mm 2 mps 732 mmHg 93%
08:00 +16°C° 0.6 mm 2 mps 732 mmHg 94%
09:00 +15°C° 2.8 mm 2 mps 732 mmHg 95%
10:00 +15°C° 2.8 mm 2 mps 732 mmHg 95%
11:00 +14°C° 2.8 mm 3 mps 732 mmHg 96%
12:00 +14°C° 2.4 mm 3 mps 732 mmHg 96%
13:00 +14°C° 2.4 mm 3 mps 732 mmHg 95%
14:00 +14°C° 2.4 mm 3 mps 732 mmHg 95%
15:00 +16°C° 0.1 mm 2 mps 732 mmHg 93%
16:00 +16°C° 0.1 mm 2 mps 732 mmHg 91%
17:00 +16°C° 0.1 mm 2 mps 732 mmHg 89%
18:00 +16°C° 0 mm 2 mps 732 mmHg 90%
19:00 +15°C° 0 mm 2 mps 732 mmHg 92%
20:00 +15°C° 0 mm 1 mps 731 mmHg 93%
21:00 +14°C° 0 mm 2 mps 732 mmHg 93%
22:00 +14°C° 0 mm 2 mps 732 mmHg 93%
23:00 +13°C° 0 mm 2 mps 732 mmHg 93%
Show more